Location: Norderney
(53.7000°N, 7.1500°E)
Time: 18:07:31
(UTC+02:00)

ACS3 Solar Sail - Pass Details

Date: 14 August 2024
Orbit: 980 x 1030 km, 97.4° (Epoch: 08 September)

Event Time Altitude Azimuth Distance (km) Brightness Sun altitude
Exits shadow 22:16:37 - 173° (S) 3,500 4.3 -10.1°
Reaches altitude 10° 22:18:30 10° 175° (S) 2,791 3.8 -10.3°
Maximum altitude 22:24:48 70° 259° (W) 1,088 2.2 -11.0°
Drops below altitude 10° 22:31:14 10° 343° (NNW) 2,849 5.3 -11.7°
Sets 22:33:48 0° 346° (NNW) 3,811 6.0 -12.0°
